| time (UTC) | temp C | wind direction | speed KPH | gust KPH | rain 1hr cm | rain 24hr cm | rain mn cm | humidity % | barometer mb |
| 20260901145403 | 27 | 214 | 8.0 | 17.7 | 0.00 | 0.00 | 0.00 | 60 | 1021.1 |
| 20260901144355 | 28 | 127 | 6.4 | 17.7 | 0.00 | 0.00 | 0.00 | 58 | 1020.9 |
| 20260901143352 | 28 | 254 | 4.8 | 11.3 | 0.00 | 0.00 | 0.00 | 57 | 1021.0 |
| 20260901142346 | 28 | 245 | 6.4 | 14.5 | 0.00 | 0.00 | 0.00 | 56 | 1021.0 |
| 20260901141349 | 28 | 203 | 3.2 | 16.1 | 0.00 | 0.00 | 0.00 | 56 | 1020.7 |
| 20260901140342 | 28 | 118 | 4.8 | 17.7 | 0.00 | 0.00 | 0.00 | 55 | 1020.6 |
| 20260901135356 | 28 | 204 | 4.8 | 20.9 | 0.00 | 0.00 | 0.00 | 55 | 1021.1 |
| 20260901134350 | 28 | 140 | 9.7 | 16.1 | 0.00 | 0.00 | 0.00 | 55 | 1020.9 |
| 20260901133344 | 29 | 143 | 11.3 | 17.7 | 0.00 | 0.00 | 0.00 | 53 | 1021.2 |
| 20260901132355 | 29 | 48 | 3.2 | 16.1 | 0.00 | 0.00 | 0.00 | 52 | 1021.4 |
| 20260901131351 | 29 | 117 | 4.8 | 14.5 | 0.00 | 0.00 | 0.00 | 55 | 1021.6 |
| 20260901130344 | 28 | 204 | 6.4 | 14.5 | 0.00 | 0.00 | 0.00 | 56 | 1021.7 |
| 20260901125344 | 28 | 231 | 8.0 | 19.3 | 0.00 | 0.00 | 0.00 | 57 | 1021.7 |
| 20260901124359 | 28 | 128 | 9.7 | 25.7 | 0.00 | 0.00 | 0.00 | 56 | 1021.6 |
| 20260901123342 | 29 | 176 | 8.0 | 24.1 | 0.00 | 0.00 | 0.00 | 56 | 1021.9 |
| 20260901122340 | 28 | 182 | 9.7 | 19.3 | 0.00 | 0.00 | 0.00 | 56 | 1021.8 |
| 20260901121359 | 28 | 177 | 14.5 | 29.0 | 0.00 | 0.00 | 0.00 | 56 | 1022.0 |
| 20260901120354 | 28 | 157 | 6.4 | 29.0 | 0.00 | 0.00 | 0.00 | 57 | 1022.0 |
| 20260901115347 | 29 | 144 | 12.9 | 24.1 | 0.00 | 0.00 | 0.00 | 54 | 1022.0 |
| 20260901114341 | 29 | 106 | 4.8 | 17.7 | 0.00 | 0.00 | 0.00 | 53 | 1022.1 |
| 20260901113357 | 29 | 328 | 1.6 | 27.4 | 0.00 | 0.00 | 0.00 | 53 | 1022.1 |
| 20260901112348 | 29 | 154 | 4.8 | 20.9 | 0.00 | 0.00 | 0.00 | 52 | 1022.3 |
| 20260901111340 | 28 | 227 | 12.9 | 27.4 | 0.00 | 0.00 | 0.00 | 52 | 1022.2 |
| 20260901110352 | 29 | 200 | 9.7 | 19.3 | 0.00 | 0.00 | 0.00 | 52 | 1022.2 |
| 20260901105346 | 29 | 147 | 4.8 | 16.1 | 0.00 | 0.00 | 0.00 | 50 | 1022.3 |
| 20260901104400 | 28 | 239 | 6.4 | 17.7 | 0.00 | 0.00 | 0.00 | 49 | 1022.3 |
| 20260901103400 | 28 | 314 | 6.4 | 24.1 | 0.00 | 0.00 | 0.00 | 50 | 1022.4 |
| 20260901102350 | 28 | 147 | 6.4 | 17.7 | 0.00 | 0.00 | 0.00 | 50 | 1022.3 |
| 20260901101350 | 28 | 222 | 6.4 | 17.7 | 0.00 | 0.00 | 0.00 | 48 | 1022.5 |
| 20260901100348 | 28 | 21 | 4.8 | 12.9 | 0.00 | 0.00 | 0.00 | 47 | 1022.2 |
| 20260901095358 | 28 | 209 | 3.2 | 17.7 | 0.00 | 0.00 | 0.00 | 48 | 1022.3 |
| 20260901094351 | 28 | 227 | 6.4 | 12.9 | 0.00 | 0.00 | 0.00 | 47 | 1022.2 |
| 20260901093352 | 28 | 240 | 4.8 | 11.3 | 0.00 | 0.00 | 0.00 | 49 | 1022.1 |
| 20260901092349 | 28 | 216 | 8.0 | 12.9 | 0.00 | 0.00 | 0.00 | 49 | 1022.0 |
| 20260901091344 | 28 | 114 | 0.0 | 8.0 | 0.00 | 0.00 | 0.00 | 51 | 1022.0 |
| 20260901090402 | 27 | 214 | 3.2 | 11.3 | 0.00 | 0.00 | 0.00 | 52 | 1021.8 |
| 20260901085352 | 27 | 143 | 1.6 | 8.0 | 0.00 | 0.00 | 0.00 | 54 | 1021.7 |
| 20260901084345 | 27 | 57 | 3.2 | 6.4 | 0.00 | 0.00 | 0.00 | 57 | 1021.6 |
| 20260901083345 | 26 | 57 | 1.6 | 4.8 | 0.00 | 0.00 | 0.00 | 61 | 1021.5 |
| 20260901082342 | 26 | 58 | 1.6 | 4.8 | 0.00 | 0.00 | 0.00 | 64 | 1021.6 |
| 20260901081342 | 26 | 55 | 0.0 | 3.2 | 0.00 | 0.00 | 0.00 | 67 | 1021.5 |
| 20260901080342 | 25 | 55 | 0.0 | 3.2 | 0.00 | 0.00 | 0.00 | 69 | 1021.5 |
| 20260901075357 | 25 | 56 | 0.0 | 3.2 | 0.00 | 0.00 | 0.00 | 72 | 1021.4 |
| 20260901074348 | 25 | 56 | 0.0 | 3.2 | 0.00 | 0.00 | 0.00 | 74 | 1021.6 |
| 20260901073351 | 24 | 56 | 1.6 | 6.4 | 0.00 | 0.00 | 0.00 | 77 | 1021.7 |
| 20260901072341 | 23 | 53 | 0.0 | 6.4 | 0.00 | 0.00 | 0.00 | 79 | 1021.6 |
| 20260901071340 | 23 | 49 | 1.6 | 4.8 | 0.00 | 0.00 | 0.00 | 80 | 1021.4 |
| 20260901070345 | 23 | 50 | 0.0 | 4.8 | 0.00 | 0.00 | 0.00 | 80 | 1021.6 |
| 20260901065338 | 23 | 50 | 0.0 | 0.0 | 0.00 | 0.00 | 0.00 | 81 | 1021.6 |
| 20260901064359 | 22 | 50 | 0.0 | 0.0 | 0.00 | 0.00 | 0.00 | 82 | 1021.7 |
| 20260901063343 | 22 | 50 | 0.0 | 3.2 | 0.00 | 0.00 | 0.00 | 82 | 1021.7 |
| 20260901062358 | 22 | 50 | 0.0 | 0.0 | 0.00 | 0.00 | 0.00 | 82 | 1021.7 |
| 20260901061359 | 22 | 50 | 0.0 | 3.2 | 0.00 | 0.00 | 0.00 | 82 | 1021.7 |
| 20260901060340 | 22 | 51 | 0.0 | 3.2 | 0.00 | 0.00 | 0.00 | 82 | 1021.6 |
| 20260901055342 | 22 | 51 | 1.6 | 3.2 | 0.00 | 0.00 | 0.00 | 83 | 1021.5 |
| 20260901054347 | 22 | 51 | 1.6 | 3.2 | 0.00 | 0.00 | 0.00 | 83 | 1021.5 |
| 20260901053343 | 22 | 51 | 0.0 | 3.2 | 0.00 | 0.00 | 0.00 | 82 | 1021.4 |
| 20260901052338 | 22 | 51 | 0.0 | 1.6 | 0.00 | 0.00 | 0.00 | 82 | 1021.4 |
| 20260901051357 | 21 | 51 | 0.0 | 1.6 | 0.00 | 0.00 | 0.00 | 82 | 1021.3 |
| 20260901050338 | 21 | 51 | 0.0 | 1.6 | 0.00 | 0.00 | 0.00 | 82 | 1021.3 |
| 20260901045357 | 22 | 51 | 0.0 | 0.0 | 0.00 | 0.00 | 0.00 | 82 | 1021.3 |
| 20260901044342 | 22 | 51 | 0.0 | 0.0 | 0.00 | 0.00 | 0.00 | 81 | 1021.3 |
| 20260901043345 | 22 | 51 | 0.0 | 1.6 | 0.00 | 0.00 | 0.00 | 81 | 1021.5 |
| 20260901042340 | 22 | 51 | 0.0 | 1.6 | 0.00 | 0.00 | 0.00 | 81 | 1021.5 |
| 20260901041341 | 22 | 51 | 0.0 | 1.6 | 0.00 | 0.00 | 0.00 | 81 | 1021.5 |
| 20260901040344 | 22 | 51 | 0.0 | 0.0 | 0.00 | 0.00 | 0.00 | 81 | 1021.4 |
| 20260901035359 | 22 | 51 | 0.0 | 0.0 | 0.00 | 0.00 | 0.00 | 81 | 1021.5 |
| 20260901034356 | 22 | 51 | 0.0 | 0.0 | 0.00 | 0.00 | 0.00 | 81 | 1021.5 |
| 20260901033352 | 22 | 51 | 0.0 | 0.0 | 0.00 | 0.00 | 0.00 | 81 | 1021.6 |
| 20260901032346 | 22 | 51 | 0.0 | 1.6 | 0.00 | 0.00 | 0.00 | 80 | 1021.6 |
| 20260901031346 | 22 | 51 | 1.6 | 3.2 | 0.00 | 0.00 | 0.00 | 80 | 1021.7 |
| 20260901030349 | 22 | 50 | 0.0 | 3.2 | 0.00 | 0.00 | 0.00 | 79 | 1021.6 |
| 20260901025343 | 22 | 50 | 1.6 | 4.8 | 0.00 | 0.00 | 0.00 | 79 | 1021.8 |
| 20260901024356 | 22 | 50 | 1.6 | 6.4 | 0.00 | 0.00 | 0.00 | 78 | 1021.8 |
| 20260901023340 | 22 | 98 | 1.6 | 4.8 | 0.00 | 0.00 | 0.00 | 78 | 1021.9 |
| 20260901022340 | 22 | 99 | 1.6 | 4.8 | 0.00 | 0.00 | 0.00 | 78 | 1022.0 |
| 20260901021341 | 22 | 99 | 0.0 | 3.2 | 0.00 | 0.00 | 0.00 | 78 | 1022.3 |
| 20260901020343 | 23 | 100 | 0.0 | 4.8 | 0.00 | 0.00 | 0.00 | 77 | 1022.3 |
| 20260901015339 | 23 | 100 | 0.0 | 1.6 | 0.00 | 0.00 | 0.00 | 77 | 1022.4 |
| 20260901014359 | 23 | 100 | 0.0 | 1.6 | 0.00 | 0.00 | 0.00 | 77 | 1022.4 |
| 20260901013338 | 23 | 100 | 0.0 | 3.2 | 0.00 | 0.00 | 0.00 | 77 | 1022.4 |
| 20260901012349 | 23 | 100 | 0.0 | 6.4 | 0.00 | 0.00 | 0.00 | 76 | 1022.4 |
| 20260901011347 | 23 | 100 | 1.6 | 6.4 | 0.00 | 0.00 | 0.00 | 75 | 1022.5 |
| 20260901010342 | 23 | 100 | 1.6 | 3.2 | 0.00 | 0.00 | 0.00 | 76 | 1022.5 |
| 20260901005359 | 23 | 100 | 0.0 | 3.2 | 0.00 | 0.00 | 0.00 | 76 | 1022.5 |
| 20260901004355 | 23 | 100 | 1.6 | 4.8 | 0.00 | 0.00 | 0.00 | 75 | 1022.5 |
| 20260901003352 | 23 | 100 | 0.0 | 6.4 | 0.00 | 0.00 | 0.00 | 76 | 1022.6 |
| 20260901002345 | 23 | 99 | 3.2 | 6.4 | 0.00 | 0.00 | 0.00 | 75 | 1022.5 |
| 20260901001352 | 23 | 98 | 3.2 | 4.8 | 0.00 | 0.00 | 0.00 | 75 | 1022.5 |
| 20260901000351 | 23 | 98 | 0.0 | 3.2 | 0.00 | 0.00 | 0.00 | 75 | 1022.6 |
| 20260831235340 | 23 | 98 | 0.0 | 3.2 | 0.00 | 0.00 | 0.00 | 75 | 1022.6 |
| 20260831234341 | 23 | 98 | 1.6 | 4.8 | 0.00 | 0.00 | 0.00 | 75 | 1022.7 |
| 20260831233343 | 23 | 97 | 0.0 | 3.2 | 0.00 | 0.00 | 0.00 | 75 | 1022.6 |
| 20260831232357 | 23 | 98 | 3.2 | 4.8 | 0.00 | 0.00 | 0.00 | 75 | 1022.6 |
| 20260831231339 | 24 | 98 | 1.6 | 3.2 | 0.00 | 0.00 | 0.00 | 75 | 1022.5 |
| 20260831230340 | 24 | 98 | 0.0 | 1.6 | 0.00 | 0.00 | 0.00 | 75 | 1022.6 |
| 20260831225357 | 24 | 98 | 0.0 | 4.8 | 0.00 | 0.00 | 0.00 | 75 | 1022.6 |
| 20260831224356 | 24 | 97 | 4.8 | 8.0 | 0.00 | 0.00 | 0.00 | 74 | 1022.7 |
| 20260831223351 | 24 | 90 | 4.8 | 6.4 | 0.00 | 0.00 | 0.00 | 74 | 1022.5 |
| 20260831222343 | 25 | 89 | 1.6 | 4.8 | 0.00 | 0.00 | 0.00 | 74 | 1022.5 |
| 20260831221344 | 25 | 89 | 1.6 | 6.4 | 0.00 | 0.00 | 0.00 | 74 | 1022.4 |
| 20260831220343 | 25 | 89 | 3.2 | 4.8 | 0.00 | 0.00 | 0.00 | 74 | 1022.6 |
| 20260831215340 | 25 | 89 | 0.0 | 4.8 | 0.00 | 0.00 | 0.00 | 74 | 1022.5 |
| 20260831214342 | 25 | 89 | 0.0 | 3.2 | 0.00 | 0.00 | 0.00 | 73 | 1022.4 |
| 20260831213347 | 25 | 89 | 0.0 | 1.6 | 0.00 | 0.00 | 0.00 | 73 | 1022.4 |
| 20260831212339 | 25 | 89 | 0.0 | 1.6 | 0.00 | 0.00 | 0.00 | 73 | 1022.4 |
| 20260831211343 | 25 | 89 | 0.0 | 1.6 | 0.00 | 0.00 | 0.00 | 72 | 1022.2 |
| 20260831210346 | 25 | 89 | 0.0 | 4.8 | 0.00 | 0.00 | 0.00 | 73 | 1022.3 |
| 20260831205358 | 25 | 89 | 0.0 | 4.8 | 0.00 | 0.00 | 0.00 | 72 | 1022.2 |
| 20260831204340 | 25 | 89 | 0.0 | 3.2 | 0.00 | 0.00 | 0.00 | 72 | 1022.2 |
| 20260831203338 | 25 | 89 | 1.6 | 4.8 | 0.00 | 0.00 | 0.00 | 72 | 1022.0 |
| 20260831202357 | 25 | 89 | 0.0 | 3.2 | 0.00 | 0.00 | 0.00 | 71 | 1022.0 |
| 20260831201338 | 25 | 89 | 3.2 | 8.0 | 0.00 | 0.00 | 0.00 | 71 | 1021.9 |
| 20260831200356 | 25 | 90 | 4.8 | 6.4 | 0.00 | 0.00 | 0.00 | 71 | 1021.9 |
| 20260831195349 | 25 | 91 | 3.2 | 9.7 | 0.00 | 0.00 | 0.00 | 71 | 1021.6 |
| 20260831194353 | 25 | 134 | 3.2 | 6.4 | 0.00 | 0.00 | 0.00 | 71 | 1021.7 |
| 20260831193357 | 25 | 137 | 1.6 | 6.4 | 0.00 | 0.00 | 0.00 | 71 | 1021.5 |
| 20260831192355 | 26 | 144 | 1.6 | 6.4 | 0.00 | 0.00 | 0.00 | 70 | 1021.3 |
| 20260831191340 | 26 | 138 | 1.6 | 8.0 | 0.00 | 0.00 | 0.00 | 70 | 1021.2 |
| 20260831190343 | 26 | 172 | 4.8 | 11.3 | 0.00 | 0.00 | 0.00 | 70 | 1021.0 |
| 20260831185342 | 26 | 161 | 6.4 | 12.9 | 0.00 | 0.00 | 0.00 | 68 | 1021.0 |
| 20260831184340 | 26 | 148 | 4.8 | 9.7 | 0.00 | 0.00 | 0.00 | 67 | 1020.9 |
| 20260831183341 | 26 | 118 | 1.6 | 11.3 | 0.00 | 0.00 | 0.00 | 66 | 1020.8 |
| 20260831182358 | 26 | 113 | 3.2 | 14.5 | 0.00 | 0.00 | 0.00 | 65 | 1020.7 |
| 20260831181337 | 26 | 96 | 8.0 | 16.1 | 0.00 | 0.00 | 0.00 | 65 | 1020.6 |
| 20260831180338 | 26 | 238 | 4.8 | 11.3 | 0.00 | 0.00 | 0.00 | 63 | 1020.5 |
| 20260831175358 | 26 | 215 | 4.8 | 12.9 | 0.00 | 0.00 | 0.00 | 63 | 1020.4 |
| 20260831174356 | 26 | 107 | 3.2 | 14.5 | 0.00 | 0.00 | 0.00 | 61 | 1020.3 |
| 20260831173357 | 27 | 103 | 9.7 | 14.5 | 0.00 | 0.00 | 0.00 | 59 | 1020.3 |
| 20260831172348 | 27 | 133 | 9.7 | 16.1 | 0.00 | 0.00 | 0.00 | 58 | 1020.3 |
| 20260831171349 | 27 | 111 | 4.8 | 14.5 | 0.00 | 0.00 | 0.00 | 55 | 1020.3 |
| 20260831170348 | 27 | 156 | 6.4 | 17.7 | 0.00 | 0.00 | 0.00 | 55 | 1020.4 |
| 20260831165403 | 27 | 240 | 6.4 | 17.7 | 0.00 | 0.00 | 0.00 | 56 | 1020.4 |
| 20260831164354 | 27 | 126 | 8.0 | 19.3 | 0.00 | 0.00 | 0.00 | 56 | 1020.5 |
| 20260831163353 | 28 | 171 | 4.8 | 12.9 | 0.00 | 0.00 | 0.00 | 52 | 1020.5 |
| 20260831162342 | 28 | 110 | 3.2 | 14.5 | 0.00 | 0.00 | 0.00 | 52 | 1020.5 |
| 20260831161343 | 28 | 229 | 9.7 | 19.3 | 0.00 | 0.00 | 0.00 | 52 | 1020.6 |
| 20260831160345 | 28 | 97 | 4.8 | 19.3 | 0.00 | 0.00 | 0.00 | 54 | 1020.4 |
| 20260831155341 | 28 | 162 | 6.4 | 16.1 | 0.00 | 0.00 | 0.00 | 55 | 1020.6 |
| 20260831154352 | 28 | 207 | 3.2 | 22.5 | 0.00 | 0.00 | 0.00 | 55 | 1020.6 |
| 20260831153346 | 28 | 260 | 4.8 | 25.7 | 0.00 | 0.00 | 0.00 | 56 | 1020.7 |
| 20260831152340 | 28 | 233 | 6.4 | 16.1 | 0.00 | 0.00 | 0.00 | 58 | 1020.5 |
| 20260831151401 | 28 | 146 | 6.4 | 14.5 | 0.00 | 0.00 | 0.00 | 59 | 1020.5 |
| 20260831150356 | 29 | 220 | 6.4 | 14.5 | 0.00 | 0.00 | 0.00 | 57 | 1020.5 |